Vorticity
6 3 6 -9 7 15 14 -1 6 9 1 7 2 3 7 13 -1 2 8 6 6 3 17 8 5 5 22 12 12 11 11 10 15 13 11 14 13 10 10 13 5 7 14 12
4 5 24 -1 27 13 7 -8 5 5 13 1 4 7 0 3 5 5 5 4 3 5 1 1 11 6 5 17 1 12 10 7 10 9 7 9 11 8 12 12 14 5 16 9
3 11 4 5 4 2 -6 8 8 18 13 12 4 1 12 15 14 -1 16 -1 3 9 6 8 18 11 3 10 11 14 7 9 9 5 5 8 8 6 7 10 13 10 11 9
4 8 2 2 18 9 2 5 -22 1 5 8 1 13 2 -2 2 4 21 19 5 -1 7 13 20 12 8 14 14 4 11 7 9 8 6 9 8 7 7 8 13 12 5 10
8 7 5 5 -4 0 4 -3 2 4 4 15 -0 -3 3 2 36 -5 8 -6 2 9 1 14 11 9 13 11 17 9 14 6 12 8 8 8 9 7 7 8 13 11 9 8
4 6 9 -5 1 24 7 0 16 3 16 13 -4 9 -2 7 20 3 -37 -5 9 1 -0 7 16 5 6 4 12 14 14 11 10 5 6 5 9 10 10 10 11 13 10 12
10 11 2 17 -4 2 4 7 7 5 3 -3 2 -0 21 7 20 7 -1 5 3 7 3 5 9 15 11 13 10 15 13 9 9 8 1 4 6 11 7 11 12 14 9 11
14 11 7 -1 16 14 3 4 3 -4 3 7 9 -7 43 -6 -30 7 38 22 3 12 10 19 8 13 6 7 12 19 16 14 6 14 8 5 5 9 7 7 10 13 14 12
15 11 -2 12 18 13 19 2 3 4 7 43 12 27 -8 4 3 -6 9 11 29 3 6 2 14 8 12 9 10 20 15 12 4 7 13 11 12 10 8 10 8 8 9 15
16 -2 7 14 13 14 3 15 3 11 3 8 7 0 19 34 39 -43 12 -8 8 20 -8 8 7 8 5 9 12 16 12 11 11 13 12 11 11 7 7 9 9 8 8 8
20 -2 7 18 5 8 28 4 17 29 2 10 7 -9 11 16 -1 38 14 14 17 9 -10 11 2 7 11 4 10 13 12 8 10 12 10 9 8 9 7 7 8 8 9 10
18 -14 7 13 3 11 8 4 13 -1 -8 17 10 8 7 -10 47 -12 1 -8 -22 -3 10 7 12 7 10 7 10 6 3 12 1 8 6 5 7 7 7 9 9 9 9 10
13 1 -2 8 4 9 14 20 -0 5 6 9 12 -3 11 8 -1 8 1 20 31 24 6 10 6 12 15 8 8 3 5 12 -2 4 7 18 8 4 9 6 6 10 11 17
14 9 5 2 10 1 15 -7 28 8 6 9 -3 13 9 -25 30 22 6 6 -3 1 5 8 15 10 14 15 11 9 19 18 16 10 9 11 13 13 10 8 8 8 8 17
10 9 8 16 2 6 9 7 -0 50 9 2 32 -23 1 23 33 3 4 5 0 13 23 7 4 8 12 11 11 9 12 8 6 8 5 14 8 7 7 7 3 7 12 17
22 5 11 6 13 -1 6 9 1 6 32 20 4 5 -6 20 75 43 7 -9 8 2 -6 8 1 -2 5 9 10 11 17 5 6 9 7 5 9 3 15 17 16 13 15 14
11 19 7 10 10 11 5 8 8 8 8 6 16 34 15 7 9 23 8 6 5 -2 0 -5 3 -2 -1 -3 13 6 21 7 -3 5 12 6 7 21 22 27 34 23 17 13
25 10 14 4 7 7 19 17 14 20 8 8 3 5 5 2 -2 2 -3 3 1 2 -1 4 11 5 3 14 4 15 21 11 7 6 10 2 18 19 11 17 28 20 17 11
9 13 11 12 1 1 2 8 26 23 12 11 2 1 5 5 -1 -16 4 -0 -4 -1 4 27 20 13 17 16 -3 7 18 11 6 4 9 4 11 25 6 18 18 15 15 14
12 45 2 18 7 -8 30 -3 6 -7 -4 1 6 7 7 -3 1 1 2 -2 10 10 9 6 10 20 20 9 1 11 5 26 10 15 9 3 13 19 12 9 16 16 14 16
4 -1 8 32 -9 27 -19 29 5 14 6 9 20 25 17 17 14 8 10 8 7 2 3 12 15 24 9 15 2 1 7 6 19 -8 9 3 20 22 24 14 14 13 16 12
34 -5 -4 -6 -7 1 1 -4 -2 2 4 -1 -1 -2 3 3 3 3 6 9 9 7 8 1 14 27 12 6 5 3 5 5 12 22 11 2 6 1 2 18 17 15 17 11
-15 10 8 -1 1 4 -3 4 2 3 2 8 11 13 9 5 2 3 2 6 5 8 9 6 12 12 19 13 6 3 2 9 8 23 9 7 7 1 4 12 7 12 13 14
26 -17 16 7 7 0 6 7 2 8 19 17 14 12 13 13 14 12 9 10 7 6 18 9 8 6 17 18 8 3 6 9 11 10 16 9 2 3 1 13 0 11 6 9
2 13 -5 -1 3 3 -2 9 -0 -2 7 11 10 9 9 10 11 12 10 9 11 9 10 10 7 7 8 16 15 6 3 7 13 9 16 8 10 4 1 3 -5 23 6 11
-9 -11 8 10 12 11 6 10 13 9 9 8 11 9 9 9 9 8 8 8 9 10 12 7 6 6 7 8 12 12 8 3 5 10 15 14 8 5 11 18 6 2 2 11
Height
5935 5936 5938 5942 5940 5943 5942 5944 5946 5945 5946 5947 5946 5946 5946 5947 5943 5943 5942 5941 5941 5939 5939 5937 5934 5931 5931 5931 5933 5932 5932 5932 5932 5933 5933 5933 5933 5934 5935 5936 5937 5939 5940 5940
5933 5935 5936 5938 5940 5942 5941 5944 5947 5948 5944 5945 5945 5945 5945 5944 5943 5941 5938 5937 5936 5936 5936 5935 5932 5930 5928 5929 5930 5929 5931 5930 5931 5931 5931 5931 5931 5933 5934 5934 5935 5936 5936 5937
5932 5933 5935 5937 5938 5941 5941 5944 5944 5945 5943 5944 5944 5944 5945 5944 5943 5942 5940 5938 5933 5934 5933 5932 5931 5929 5929 5926 5926 5928 5928 5929 5929 5930 5929 5929 5929 5930 5932 5933 5932 5932 5933 5935
5930 5932 5936 5936 5937 5939 5944 5938 5941 5944 5941 5943 5943 5944 5946 5943 5942 5939 5938 5936 5936 5930 5931 5930 5928 5926 5927 5926 5925 5924 5926 5926 5927 5928 5927 5927 5927 5928 5929 5930 5930 5929 5930 5932
5927 5929 5930 5935 5936 5937 5937 5936 5940 5941 5940 5940 5942 5941 5945 5944 5939 5934 5932 5938 5936 5929 5932 5928 5927 5927 5925 5924 5923 5923 5923 5923 5924 5925 5926 5926 5926 5926 5926 5927 5928 5928 5928 5930
5919 5924 5926 5929 5930 5932 5934 5933 5937 5938 5938 5938 5937 5941 5937 5938 5936 5934 5931 5933 5937 5932 5928 5929 5927 5925 5924 5923 5922 5922 5921 5921 5922 5923 5923 5924 5924 5924 5925 5924 5924 5926 5926 5928
5914 5918 5922 5924 5926 5930 5935 5935 5936 5939 5936 5936 5933 5934 5937 5935 5933 5932 5933 5929 5933 5930 5925 5925 5926 5925 5921 5921 5921 5920 5919 5918 5919 5920 5920 5920 5921 5921 5921 5921 5922 5923 5924 5925
5908 5912 5916 5917 5921 5925 5930 5933 5936 5936 5935 5932 5931 5928 5931 5930 5938 5934 5929 5927 5927 5926 5924 5917 5920 5922 5922 5919 5918 5917 5916 5915 5917 5917 5917 5917 5918 5918 5919 5919 5919 5920 5921 5922
5905 5909 5915 5915 5915 5919 5925 5928 5932 5932 5929 5931 5925 5905 5920 5930 5930 5930 5929 5927 5924 5926 5925 5923 5915 5916 5918 5918 5916 5915 5914 5913 5914 5914 5914 5914 5915 5915 5915 5916 5917 5917 5918 5919
5900 5908 5912 5914 5914 5913 5918 5920 5920 5926 5930 5929 5931 5927 5927 5929 5926 5925 5916 5930 5927 5923 5923 5923 5921 5915 5914 5915 5915 5914 5912 5912 5912 5912 5912 5912 5912 5912 5912 5912 5914 5914 5915 5915
5895 5901 5910 5912 5909 5912 5914 5912 5919 5922 5922 5923 5924 5922 5912 5919 5920 5921 5921 5927 5926 5920 5919 5919 5919 5917 5914 5912 5911 5911 5911 5911 5911 5910 5910 5909 5909 5909 5909 5909 5909 5910 5911 5912
5889 5895 5902 5906 5908 5908 5911 5916 5916 5916 5909 5924 5924 5917 5915 5921 5917 5919 5912 5922 5920 5922 5916 5916 5915 5915 5914 5912 5911 5911 5911 5910 5909 5907 5906 5906 5906 5907 5906 5905 5906 5906 5906 5907
5882 5886 5895 5902 5907 5905 5904 5907 5910 5916 5919 5921 5923 5921 5905 5918 5916 5916 5920 5916 5916 5917 5914 5911 5912 5911 5911 5909 5908 5908 5906 5904 5905 5904 5902 5902 5901 5901 5902 5903 5901 5901 5901 5901
5877 5883 5888 5895 5901 5905 5902 5903 5906 5909 5913 5916 5914 5914 5909 5912 5914 5916 5916 5914 5913 5912 5912 5909 5907 5908 5907 5905 5904 5902 5901 5901 5899 5900 5899 5898 5898 5897 5895 5897 5896 5896 5896 5896
5871 5877 5884 5888 5893 5900 5902 5901 5900 5901 5903 5906 5900 5904 5890 5903 5896 5909 5908 5914 5910 5906 5905 5906 5907 5904 5905 5903 5902 5899 5898 5897 5896 5896 5896 5895 5893 5892 5891 5890 5890 5889 5890 5891
5867 5872 5879 5883 5889 5893 5895 5899 5900 5900 5900 5903 5905 5909 5914 5902 5898 5902 5906 5905 5908 5905 5900 5904 5904 5903 5900 5901 5899 5897 5895 5894 5892 5892 5891 5891 5887 5885 5882 5881 5880 5882 5882 5885
5862 5866 5872 5878 5884 5887 5889 5892 5895 5898 5900 5902 5903 5907 5909 5908 5903 5899 5899 5900 5899 5898 5897 5899 5899 5900 5899 5899 5896 5893 5891 5890 5888 5888 5887 5886 5884 5879 5875 5874 5872 5873 5875 5879
5858 5864 5869 5875 5881 5882 5886 5889 5890 5894 5892 5892 5894 5894 5896 5899 5903 5895 5890 5893 5894 5894 5895 5895 5895 5893 5896 5895 5894 5890 5889 5886 5885 5884 5884 5882 5878 5874 5872 5870 5868 5869 5871 5874
5859 5864 5867 5871 5874 5877 5872 5869 5882 5884 5882 5886 5888 5889 5890 5893 5896 5890 5885 5886 5889 5890 5889 5890 5889 5885 5889 5890 5889 5886 5885 5882 5882 5880 5880 5878 5875 5870 5868 5868 5867 5868 5869 5871
5851 5853 5861 5866 5869 5870 5859 5869 5876 5877 5875 5878 5880 5882 5884 5888 5890 5884 5878 5881 5885 5883 5884 5883 5883 5880 5882 5884 5884 5881 5881 5879 5877 5875 5876 5874 5871 5867 5865 5865 5865 5866 5867 5870
5844 5846 5852 5854 5859 5854 5857 5858 5866 5870 5870 5872 5874 5876 5878 5880 5881 5879 5877 5878 5880 5879 5879 5878 5878 5875 5874 5878 5877 5877 5875 5875 5873 5872 5872 5870 5867 5865 5862 5861 5862 5864 5865 5867
5842 5846 5847 5850 5850 5847 5848 5855 5857 5859 5862 5865 5866 5869 5870 5871 5871 5872 5873 5873 5874 5874 5874 5872 5870 5870 5869 5872 5871 5871 5870 5869 5868 5860 5866 5866 5865 5863 5861 5858 5859 5861 5862 5865
5830 5833 5838 5841 5840 5843 5846 5848 5850 5851 5855 5857 5860 5862 5863 5863 5863 5863 5864 5865 5865 5865 5867 5866 5865 5863 5863 5866 5865 5864 5864 5864 5863 5863 5862 5862 5862 5861 5859 5857 5857 5858 5859 5860
5817 5821 5826 5832 5832 5835 5841 5842 5844 5846 5849 5851 5852 5853 5853 5854 5854 5855 5854 5855 5856 5857 5858 5858 5858 5856 5858 5857 5858 5858 5858 5858 5857 5857 5857 5857 5857 5857 5857 5855 5854 5855 5856 5854
5807 5817 5818 5821 5824 5830 5830 5836 5839 5837 5841 5843 5843 5844 5845 5845 5845 5845 5845 5845 5848 5848 5850 5850 5850 5848 5849 5851 5851 5851 5852 5852 5851 5851 5850 5851 5851 5852 5853 5853 5853 5849 5850 5849
5803 5812 5816 5810 5818 5824 5824 5830 5830 5830 5832 5833 5833 5835 5834 5835 5836 5835 5835 5836 5838 5839 5840 5841 5841 5840 5840 5842 5843 5843 5844 5845 5844 5843 5843 5842 5843 5844 5846 5847 5848 5848 5846 5844